AirNav   Air Wisconsin pilot careers
 
 511 users online  

01J Hilliard Airpark
Hilliard, Florida, USA

GOING TO HILLIARD?


FAA INFORMATION EFFECTIVE 11 OCTOBER 2018

Location

FAA Identifier: 01J
Lat/Long: 30-41-09.4800N / 081-54-22.8350W
30-41.158000N / 081-54.380583W
30.6859667 / -81.9063431
(estimated)
Elevation: 59 ft. / 18.0 m (surveyed)
Variation: 03W (1985)
From city: 1 mile E of HILLIARD, FL
Time zone: UTC -4 (UTC -5 during Standard Time)
Zip code: 32046

Airport Operations

Airport use: Open to the public
Activation date: 12/1969
Control tower: no
ARTCC: JACKSONVILLE CENTER
FSS: GAINESVILLE FLIGHT SERVICE STATION
NOTAMs facility: GNV (NOTAM-D service available)
Attendance: UNATNDD
Wind indicator: lighted
Segmented circle: no
Lights: ACTVT HIRL RY 18/36 - CTAF.
Beacon: white-green (lighted land airport)
Operates sunset to sunrise.

Airport Communications

CTAF: 122.9
WX ASOS at JAX (16 nm SE): PHONE 904-741-4304

Nearby radio navigation aids

VOR radial/distance  VOR name  Freq  Var
VQQr001/(28.4)CECIL VOR117.9003W
CRGr318/29.2CRAIG VORTAC114.5003W
SSIr231/32.3BRUNSWICK VORTAC109.8004W
TAYr075/35.1TAYLOR VORTAC112.9003W

 
NDB name  Hdg/Dist  Freq  Var  ID
DINNS344/14.334406WJA .--- .-

Airport Services

Fuel available: 100LL
Parking: tiedowns
Airframe service: NONE
Powerplant service: NONE
Bottled oxygen: NONE
Bulk oxygen: NONE

Runway Information

Runway 18/36

Dimensions: 3600 x 125 ft. / 1097 x 38 m
Surface: turf, in fair condition
Runway edge lights: high intensity
Gradient: ESTD
RUNWAY 18  RUNWAY 36
Latitude: 30-41.454833N30-40.861167N
Longitude: 081-54.387000W081-54.374167W
Elevation: 54.1 ft.51.3 ft.
Gradient: 0.2%0.2%
Traffic pattern: leftleft
Displaced threshold: 400 ft.730 ft.
Markings: NSTD, in good conditionNSTD, in good condition
Visual slope indicator: 2-light PAPI on right (3.00 degrees glide path)
PAPI 18 UNUSBL BYD 8 DEG RIGHT OF CRS.
2-light PAPI on left (3.00 degrees glide path)
PAPI 36 UNUSBL BYD 5 DEG LEFT OF CRS.
Touchdown point: yes, no lightsyes, no lights
Obstructions: 7 ft. fence, 26 ft. from runway, 3:1 slope to clear
RY 18 APCH RATIO 20:1 TO DSPLCD THLD DUE TO 39 FT TREE 385 FT FROM END OF RY 65 FT L OF CNTRLN.
35 ft. trees, 275 ft. from runway, 8:1 slope to clear
RY 36 APCH RATIO 20:1 TO DSPLCD THLD DUE TO 69 FT TREES 125 FT R OF CNTRLN; 643 FT FROM RY END.

Airport Ownership and Management from official FAA records

Ownership: Publicly-owned
Owner: TOWN OF HILLIARD
PO BOX 249
HILLIARD, FL 32046
Phone 904-845-3555
CONTACT PERSON: LISA PURVIS, 904-845-3555
Manager: JOE BLAKE
P.O. BOX 549, P.O. BOX 549
HILLIARD, FL 32406
Phone 904-923-0482
AIRPORT PHYSICAL ADDRESS: 37776 EAST WOOD ROAD

Airport Operational Statistics

Aircraft based on the field: 25
Single engine airplanes: 24
Ultralights: 1
    
Aircraft operations: avg 96/week *
62% local general aviation
38% transient general aviation
* for 12-month period ending 23 February 2017

Additional Remarks

ARPT CLSD EXCP VMC & FM SS-SR.

Instrument Procedures

There are no published instrument procedures at 01J.

Some nearby airports with instrument procedures:

KJAX - Jacksonville International Airport (16 nm SE)
KFHB - Fernandina Beach Municipal Airport (23 nm E)
KHEG - Herlong Recreational Airport (25 nm S)
KVQQ - Cecil Airport (28 nm S)
KCRG - Jacksonville Executive Airport at Craig (29 nm SE)
 
Loc | Ops | Rwys | IFR | FBO | Links
Com | Nav | Svcs | Stats | Notes


 
Area around 01J (Hilliard Airpark)
 
Road maps at: MapQuest Bing Google
 
Aerial photo
WARNING: Photo may not be current or correct
Aerial photo of 01J (Hilliard Airpark)
Photo by Jack Baily
Photo taken 18-May-2013
looking south.

Do you have a better or more recent aerial photo of Hilliard Airpark that you would like to share? If so, please send us your photo.

 
Sectional chart

 
Airport distance calculator
Flying to Hilliard Airpark? Find the distance to fly.

From to 01J

Sunrise and sunset
Times for 18-Oct-2018
 Local
(UTC-4)
 Zulu
(UTC)
Morning civil twilight07:0911:09
Sunrise07:3311:33
Sunset18:5322:53
Evening civil twilight19:1723:17

Current date and time
Zulu (UTC)  18-Oct-2018 05:44:20
Local (UTC-4)  18-Oct-2018 01:44:20
 
METAR
KJAX 
16nm SE 
180456Z 00000KT 10SM SCT045 BKN090 25/23 A3016 RMK AO2 SLP215 T02500233 403440239
KHEG 
25nm S 
180515Z AUTO 00000KT 10SM BKN044 BKN055 24/24 A3019 RMK AO2
KVQQ 
28nm S 
180515Z AUTO 00000KT 10SM BKN042 OVC050 24/23 A3016 RMK AO2
KCRG 
29nm SE 
180453Z 05004KT 10SM BKN049 26/23 A3017 RMK AO2 SLP215 T02560228 403330239
KNIP 
31nm SE 
180453Z 33004KT 10SM BKN048 BKN100 BKN250 26/26 A3017 RMK SLP212 T2 SET T02560256 403390256
KNRB 
31nm SE 
180452Z 26003KT 9SM -RA BKN049 BKN060 OVC070 A3017 RMK AO2 RAB32 SLP217 P0001 $
TAF
KJAX 
16nm SE 
180131Z 1802/1824 VRB05KT P6SM VCSH BKN050 TEMPO 1802/1804 4SM SHRA FM180400 VRB03KT P6SM SCT050 FM181400 04009KT P6SM VCSH SCT020 FM181800 05015G21KT P6SM VCSH OVC025
NOTAMs
Click for the latest NOTAMs
NOTAMs are issued by the DoD/FAA and will open in a separate window not controlled by AirNav.

 

 
 

FBO, Fuel Providers, and Aircraft Ground Support

  
 Business Name 
 
 Contact 
 
 Services / Description 
 
Fuel Prices
 
Comments
  
Hilliard Aviation 904-923-0482
[web site]
[email]
Airport management, Aviation fuel, Organization with aviation interests

More info about Hilliard Aviation
Shell
100LL
SS $4.25 
 Updated 09-Oct-2018
 
   1 read write
SS=Self service
Update Fuel Prices
 

Would you like to see your business listed on this page?

 If your business provides an interesting product or service to pilots, flight crews, aircraft, or users of the Hilliard Airpark, you should consider listing it here.  To start the listing process, click on the button below
 
Add a business
 

Other Pages about Hilliard Airpark

01j.8k.com
 
Update a link
 
Copyright © AirNav, LLC. All rights reserved. Privacy Policy  Contact